sat.trackr.live / text

‹ back to catalog

CUTE

NORAD 49263 · 2021-088D

PAYLOAD ACTIVE UNKNOWN

§ Identity

Operator
Country
US
Launch date
2021-09-27
Launch site
AFWTR
Launch vehicle
Mass (kg)
RCS (m²)

External: N2YO · Heavens-Above · Gunter

§ Orbital elements

Epoch: 2026-05-25T00:07:17.546016Z

Period
91.04 min
Inclination
97.4190°
Eccentricity
0.0003679
Mean motion
15.81668260 rev/d
Perigee alt
323.3 km
Apogee alt
328.2 km
Semi-major
6,703.9 km
B*
1.2536e-3
RAAN
242.2250°
Arg perigee
262.5615°
Mean anomaly
97.5236°
Rev number
25,887

§ Raw data

CUTE1 49263U 21088D   26145.00506419  .00257094  00000+0  12536-2 0  99912 49263  97.4190 242.2250 0003679 262.5615  97.5236 15.81668260258870

JSON: /api/v1/satellites/49263 · /tle

For live sub-satellite position, see the globe view (requires WebGL).

§ Visibility from observer

Set your observer location to see the next 7 days of passes ≥ 10°. The values pass through the URL so the page stays shareable.

No JS? Fill the form by hand. The geolocation button needs JavaScript.

§ Radio — SatNOGS DB

ModeDescriptionDownlinkUplink
GFSK Mode U - GFSK9k6 AX.25/G3RUH - SpaceQuest TRX-U 437.250 MHz
BPSK Mode S - BPSK500k - BCT S-band SDR (inactive) 2.402 GHz
GMSK Mode U - GMSK19k2 AX.25/G3RUH - SpaceQuest TRX-U (inactive) 437.250 MHz

3 transmitters · refreshed weekly from db.satnogs.org